Retour au catalogue

QIANFAN-48

ActifCommunicationsPO
NORAD 62249·PAYLOAD·🇨🇳 China

Lancé Dec 5, 2024 depuis Taiyuan Satellite Launch Center

Loading…

Prochains Passages (prochaines 24 heures)

TLE

FraisSource: Space-Track

Époque: Sep 14, 2026, 14:08 UTC

1 62249U 24232N   26257.58910681  .00000092  00000-0  12306-3 0  9992
2 62249  89.0159  13.5408 0018951 121.7624 238.5377 13.51022373136490

Suivez QIANFAN-48 en temps réel avec AllMySat

Download on the App Store